Regional Weather Roundup
Issued by NWS Upton, NY

Current Version | Previous Version | Graphics & Text | Print | Product List | Glossary Off
Versions: 1 2 3 4 5 6 7 8 9 10 11 12 13 14 15 16 17 18 19 20 21 22 23 24 25 26 27 28 29 30 31 32 33 34 35 36 37 38 39 40 41 42 43 44 45 46 47 48 49 50

000
ASUS41 KOKX 290605
RWROKX

REGIONAL WEATHER ROUNDUP
NATIONAL WEATHER SERVICE NEW YORK NY
200 AM EDT FRI AUG 29 2014

NOTE: "FAIR" INDICATES FEW OR NO CLOUDS BELOW 12,000 FEET WITH NO
SIGNIFICANT WEATHER AND/OR OBSTRUCTIONS TO VISIBILITY.

NYZ071-072-176-178-NJZ106-104-290700-
NEW YORK CITY METRO AREA


CITY           SKY/WX    TMP DP  RH WIND       PRES   REMARKS
CENTRAL PARK   FAIR      65  47  52 VRB5      30.10S
LAGUARDIA APRT FAIR      67  51  56 N8        30.07R
KENNEDY INTL   FAIR      67  49  52 N9        30.07F
NEWARK/LIBERTY FAIR      65  49  56 N9        30.08S
BRNX BOT. GARD   N/A     63  50  63 CALM      30.10R
TETERBORO      FAIR      63  48  58 NW5       30.07R
$$

NYZ177-179-078>081-290700-
LONG ISLAND NEW YORK

CITY           SKY/WX    TMP DP  RH WIND       PRES   REMARKS
FARMINGDALE    CLOUDY    65  51  60 N12       30.07R
ISLIP          FAIR      65  52  62 N7        30.05R
SHIRLEY        FAIR      63  53  70 N9        30.06S
WESTHAMPTON    FAIR      63  53  70 N6        30.06R
MONTAUK POINT    N/A     67  54  63 N8        30.05R
$$

NYZ052-065-067-290700-
HUDSON VALLEY

CITY           SKY/WX    TMP DP  RH WIND       PRES   REMARKS
WHITE PLAINS   FAIR      61  49  64 N9        30.07S
NEWBURGH       CLEAR     55  50  82 CALM      30.11S
MONTGOMERY     FAIR      51  49  92 CALM      30.10R
POUGHKEEPSIE   FAIR      53  51  93 E3        30.09R
ALBANY         FAIR      55  50  83 CALM      30.09S
$$

NJZ001-105-106-008-010-013-015-019>022-104-290700-
NEW JERSEY

CITY           SKY/WX    TMP DP  RH WIND       PRES   REMARKS
NEWARK/LIBERTY FAIR      65  49  56 N9        30.08S
TETERBORO      FAIR      63  48  58 NW5       30.07R
CALDWELL       FAIR      58  48  69 CALM      30.09S
MORRISTOWN     FAIR      54  48  82 CALM      30.09S
SOMERVILLE     FAIR      55  50  83 CALM      30.08S
LINDEN         FAIR      67  51  56 N3        30.10S
SUSSEX         FAIR      53  49  86 CALM      30.11S
ANDOVER          N/A     52  50  93 CALM      30.12S
TRENTON        FAIR      61  48  62 N8        30.09S
MILLVILLE      FAIR      60  51  72 N3        30.09S
ATLANTIC CITY  FAIR      58  51  78 N6        30.08S
WRIGHTSTOWN    FAIR      59  50  70 NW7       30.07S
TOMS RIVER     FAIR      61  48  63 NW5       30.08S
BELMAR         FAIR      61  46  59 NW6       30.08S
$$

PAZ047>061-062-071-290700-
EASTERN PENNSYLVANIA

CITY           SKY/WX    TMP DP  RH WIND       PRES   REMARKS
PHILADELPHIA   FAIR      66  47  50 NW10      30.10F
ALLENTOWN      FAIR      58  47  66 CALM      30.12S
SCRANTON       FAIR      53  49  86 CALM      30.14S
$$

CTZ002-004>006-009-010-012-RIZ004-006-007-MAZ004-011-015-290700-
SOUTHERN NEW ENGLAND
 IN CT

CITY           SKY/WX    TMP DP  RH WIND       PRES   REMARKS
BRADLEY INTL   FAIR      59  52  77 W6        30.06R
HARTFORD       FAIR      63  52  67 NW5       30.05S
DANBURY        FAIR      61  50  67 N6        30.09S
WTRBRY/OXFORD  FAIR      57  48  72 N7        30.10S
BRIDGEPORT     FAIR      64  52  64 NW9       30.06R
MERIDEN        FAIR      58  53  84 CALM      30.07R
NEW HAVEN      FAIR      65  51  60 N6        30.06R
CHESTER        FAIR      63  52  67 N7        30.06S
GROTON         FAIR      61  52  72 N8        30.03R
WILLIMANTIC    FAIR      57  51  80 N3        30.07R

 IN RI

CITY           SKY/WX    TMP DP  RH WIND       PRES   REMARKS
PROVIDENCE     FAIR      61  49  64 NW9       30.04R
BLOCK ISLAND   FAIR      64  50  59 N8G18     30.03S
WESTERLY       FAIR      63  49  60 N10       30.04R

 IN MA

CITY           SKY/WX    TMP DP  RH WIND       PRES   REMARKS
BOSTON         FAIR      63  48  58 NW12      30.01R
WORCESTER      FAIR      55  48  77 NW10      30.06R
WESTFIELD      FAIR      55  52  89 CALM      30.06S
PROVINCETOWN   FAIR      64  54  68 NW15      30.00R
NANTUCKET      FAIR      67  52  58 N15       29.99R
$$

ANZ330-335-338-340-345-350-353-355-290700-
COASTAL MARINE OBSERVATIONS


STATION/POSITION TIME  SKY/WX   TEMP    WIND        PRES    VSBY  WAVE
                                AIR SEA DIR/SP/G                  HT/PER
                 (UTC)          (F)     (DEG/KT/KT) (MB)    (MI)  (FT/S)
NY HARB ENTRANCE NOT AVBL
4S FIRE IS       NOT AVBL
23SW MTP         0600                                 N/A           4/11
HUDSON CANYON    0600            71 72  350/ 17/ 19 1016.6          5/11
EXECUTION ROCKS  0600            67 74  360/  6/ 10   N/A
WESTERN LI SOUND 0600            67     350/  6/ 10   N/A           0
CENTRAL LI SOUND 0500            68 71  340/ 12/ 14   N/A           1/ 3
EASTERN LI SOUND 0500            67 68   10/ 10/ 14   N/A
ROBBINS REEF     0500            67     350/  7/ 10   N/A
$$


>>>>>>>>>>>>>>>>>>>>>>>>>>>> KEY <<<<<<<<<<<<<<<<<<<<<<<<<<<
>                                                          <
>     SKY/WX - SKY CONDITION/PRESENT WEATHER               <
>     TMP    - TEMPERATURE IN FAHRENHEIT                   <
>     DP     - DEWPOINT IN FAHRENHEIT                      <
>     RH     - RELATIVE HUMIDITY IN PERCENT                <
>     WIND   - DIRECTION AND SPEED IN MPH                  <
>     PRES   - MEAN SEA LEVEL PRESSURE IN INCHES OF HG     <
>     WCI    - WIND CHILL INDEX                            <
>     VSB    - VISIBILITY IN MILES                         <
>     HX     - HEAT INDEX                                  <
>     TC     - TEMPERATURE IN CELSIUS                      <
>     VRB    - VARIABLE WIND DIRECTION                     <
>                                                          <
>>>>>>>>>>>>>>>>>>>>>>>>>>>> KEY <<<<<<<<<<<<<<<<<<<<<<<<<<<





USA.gov is the U.S. government's official web portal to all federal, state and local government web resources and services.